LIEELIEO

Guest
Details From LIEE - Cagliari Elmas
To LIEO - Olbia Costa Smeralda
Flight Number -
Tags Generated
Created
Modified
Stats Distance 100 nm / 186 km
Max Altitude 0 ft / 0 m
Waypoints 2
Social Downloads 5
Likes 0
Share VATSIM

Download

Looking for another format? Having issues loading an existing format? Contact us
Advertisement - Login to hide

Notes

Generated

Route

LIEE LIEO

ID Type Via Altitude Latitude Longitude Leg Dist Tot Dist Heading (true) Name
O LIEE APT - 0 ft / 0 m 39.26081˚ 9.04347˚ - 0 nm - -
O LIEO APT - 0 ft / 0 m 40.89241˚ 9.50569˚ 100 nm 100 nm 12° / 12° -

Altitude Profile

Advertisement - Login to hide

LIEE

Details ICAO LIEE (CAG)
Name Cagliari Elmas
Region Italy
Timezone Europe/Rome (UTC+2.0)
Stats Elevation 13 ft / 4 m (AMSL)
Location 39.251475° 9.054291°
Runways 1
Magnetic Variation 2.342° E

METAR

LIEE 220050Z 04004KT 9999 FEW015 14/13 Q1012

Decode

TAF

TAF LIEE 212300Z 2200/2224 VRB04KT 9999 SCT030 BECMG 2209/2211 29010KT

Decode

Departure Runways

ID Width Length Bearing (true) Bearing (mag) Surface Threshold Offset Overrun Length
14 148 ft / 45 m 9,157 ft / 2,791 m 138.08° 135.74° Asphalt 0 ft / 0 m 187 ft / 57 m
32 148 ft / 45 m 9,157 ft / 2,791 m 318.09° 315.75° Asphalt 0 ft / 0 m 0 ft / 0 m

LIEO

Details ICAO LIEO (OLB)
Name OLBIA COSTA SMERALDA
Region Italy
Timezone Europe/Rome (UTC+2.0)
Stats Elevation 37 ft / 11 m (AMSL)
Location 40.898661° 9.517629°
Runways 1
Magnetic Variation 2.488° E

METAR

LIEO 220050Z 23005KT 9999 BKN020 16/15 Q1011

Decode

TAF

TAF LIEO 212300Z 2200/2224 25010KT 9999 SCT030 TEMPO 2203/2209 4000 SHRA BECMG 2209/2211 07010KT TEMPO 2212/2216 4000 TSRA BECMG 2219/2221 25008KT

Decode

Destination Runways

ID Width Length Bearing (true) Bearing (mag) Surface Threshold Offset Overrun Length
06 148 ft / 45 m 8,013 ft / 2,442 m 55.30° 52.81° Asphalt 805 ft / 245 m 180 ft / 55 m
24 148 ft / 45 m 8,013 ft / 2,442 m 235.31° 232.82° Asphalt 495 ft / 151 m 180 ft / 55 m

Approach Navaids

Runway Type Ident Frequency Range Bearing (true) Bearing (mag) Slope Elevation
06 Localiser ISM 109.90 MHz 18 nm / 33 km 55.31° 52.82° - 36 ft / 11 m (AMSL)
06 Glidescope ISM 109.90 MHz 10 nm / 19 km 55.30° 52.82° 3.50° 36 ft / 11 m (AMSL)
06 DME ISM 109.90 MHz 18 nm / 33 km - - - 36 ft / 11 m (AMSL)
24 Localiser IOL 111.30 MHz 20 nm / 37 km 235.31° 232.82° - 36 ft / 11 m (AMSL)
24 Glidescope IOL 111.30 MHz 10 nm / 19 km 235.31° 232.82° 3.00° 36 ft / 11 m (AMSL)
24 DME IOL 111.30 MHz 25 nm / 46 km - - - 36 ft / 11 m (AMSL)

Popular Alternatives